Flag for Canada Weather past 2 weeks in Cambridge, Ontario, Canada

Now
48 °F

Clear.


Feels Like: 48 °F
Forecast: 42 / 65 °F
Wind: No wind

Location: Waterloo Well

Current Time: Apr 17, 2015 at 11:58:05 PM

Latest Report: Apr 17, 2015 at 11:00 PM


Visibility: 9 mi

Pressure: 30.01 "Hg

Humidity: 82%

Dew point: 43 °F

Location of CambridgeLocation

Historic Weather in Cambridge — Graph

°F

Cambridge temperature yesterday

Maximum temperature yesterday: 68 °F (at 2:52 PM)
Minimum temperature yesterday: 32 °F (at 7:00 AM)
Average temperature yesterday: 48 °F

Past Weeks' High & Low Weather Summary

 TemperatureHumidityPressure
High72 °F (Apr 13, 1:00 PM)100% (Apr 3, 2:02 AM)30.41 "Hg (Apr 3, 2:02 AM)
Low21 °F (Apr 5, 5:02 AM)23% (Apr 14, 3:00 PM)29.44 "Hg (Apr 10, 8:00 AM)
Average42 °F73%30.08 "Hg
* Reported Apr 2 10:00 PM — Apr 17 10:00 PM, Cambridge, Weather by CustomWeather, © 2015

Note: Actual official high and low records may vary slightly from our data, if they occured in-between our weather recording intervals... More about our weather records

Advertising

Cambridge weather history for previous 24 hours

 ConditionsComfort  
Time TempWeatherWind HumidityBarometerVisibility
10:00 PM
Fri, Apr 17
52 °FClear.No wind67%30.02 "Hg9 mi
9:00 PM55 °FSunny.6 mph59%30.02 "Hg9 mi
8:00 PM61 °FSunny.7 mph45%30.00 "Hg9 mi
7:00 PM64 °FSunny.12 mph37%29.98 "Hg9 mi
6:00 PM66 °FSunny.13 mph32%29.98 "Hg9 mi
5:00 PM68 °FSunny.17 mph30%29.98 "Hg9 mi
4:00 PM68 °FSunny.13 mph35%29.98 "Hg9 mi
3:00 PM68 °FPassing clouds.14 mph35%30.00 "Hg9 mi
2:00 PM66 °FScattered clouds.12 mph37%30.01 "Hg9 mi
1:00 PM64 °FSunny.14 mph40%30.03 "Hg9 mi
12:00 PM63 °FSunny.12 mph45%30.04 "Hg9 mi
11:00 AM59 °FSunny.10 mph59%30.03 "Hg9 mi
10:00 AM55 °FScattered clouds.9 mph77%30.03 "Hg6 mi
9:00 AM52 °FFog.9 mph88%30.03 "Hg3 mi
8:00 AM50 °FFog.8 mph94%30.04 "Hg2 mi
7:56 AM50 °FFog.8 mph94%30.04 "Hg2 mi
7:00 AM50 °FFog.7 mph94%30.02 "Hg2 mi
6:00 AM50 °FFog.8 mph94%30.01 "Hg2 mi
5:00 AM50 °FFog.5 mph94%30.00 "Hg2 mi
4:51 AM50 °FFog.5 mph94%30.00 "Hg2 mi
4:00 AM48 °FLight rain. Fog.5 mph100%30.01 "Hg2 mi
3:58 AM48 °FLight rain. Fog.6 mph100%30.01 "Hg2 mi
3:00 AM48 °FLight rain. Fog.6 mph100%30.01 "Hg1 mi
2:04 AM48 °FLight rain. Fog.3 mph94%30.03 "Hg1 mi
1:51 AM48 °FFog.5 mph94%30.03 "Hg1 mi
1:00 AM48 °FFog.3 mph94%30.04 "Hg5 mi
12:00 AM48 °FMostly cloudy.8 mph87%30.06 "Hg9 mi
11:00 PM
Thu, Apr 16
48 °FLight rain. Overcast.10 mph87%30.08 "Hg9 mi
Weather by CustomWeather, © 2015

See weather overviewHow to use our weather pages